Date Time,Air Temp,Sky Temp,Clarity,Light Level,Rain Sensor,Readings
2010-02-10 00:00:06,15.0,-26.4,41.4,0.0,2.3,112
2010-02-10 00:05:06,14.9,-30.0,44.9,0.0,2.3,111
2010-02-10 00:10:06,14.9,-30.1,45.0,0.0,2.3,111
2010-02-10 00:15:06,14.8,-30.5,45.3,0.0,2.3,112
2010-02-10 00:20:06,14.8,-30.3,45.1,0.0,2.3,111
2010-02-10 00:25:06,14.8,-30.1,44.9,0.0,2.3,112
2010-02-10 00:30:06,14.8,-27.4,42.3,0.0,2.3,111
2010-02-10 00:35:06,14.9,-27.4,42.3,0.0,2.3,111
2010-02-10 00:40:06,14.9,-29.3,44.2,0.0,2.3,111
2010-02-10 00:45:06,14.9,-30.6,45.5,0.0,2.3,112
2010-02-10 00:50:06,14.8,-30.6,45.4,0.0,2.3,112
2010-02-10 00:55:06,14.8,-30.4,45.2,0.0,2.3,111
2010-02-10 01:00:06,14.8,-22.1,37.0,0.0,2.3,112
2010-02-10 01:05:06,14.9,-18.5,33.4,0.0,2.3,112
2010-02-10 01:10:06,15.0,-12.4,27.4,0.0,2.3,111
2010-02-10 01:15:06,15.1,-8.7,23.9,0.0,2.4,111
2010-02-10 01:20:06,15.1,-10.9,26.1,0.0,2.4,112
2010-02-10 01:25:06,15.1,-13.5,28.7,0.0,2.3,111
2010-02-10 01:30:06,15.2,-8.4,23.5,0.0,2.4,111
2010-02-10 01:35:06,15.2,-12.1,27.3,0.0,2.4,112
2010-02-10 01:40:06,15.2,-23.6,38.8,0.0,2.3,111
2010-02-10 01:45:06,15.1,-13.9,29.0,0.0,2.3,112
2010-02-10 01:50:06,15.1,-12.0,27.1,0.0,2.3,112
2010-02-10 01:55:06,15.1,-22.8,38.0,0.0,2.4,111
2010-02-10 02:00:06,15.0,-19.2,34.3,0.0,2.4,112
2010-02-10 02:05:06,15.1,-10.2,25.3,0.0,2.3,111
2010-02-10 02:10:06,15.2,-10.1,25.2,0.0,2.3,112
2010-02-10 02:15:06,15.3,-9.3,24.5,0.0,2.3,111
2010-02-10 02:20:06,15.3,-7.5,22.8,0.0,2.3,111
2010-02-10 02:25:06,15.4,-8.0,23.4,0.0,2.2,112
2010-02-10 02:30:06,15.4,-6.8,22.1,0.0,2.3,112
2010-02-10 02:35:06,15.3,-8.1,23.4,0.0,2.2,111
2010-02-10 02:40:06,15.3,-7.6,22.9,0.0,2.2,112
2010-02-10 02:45:06,15.2,-7.7,22.9,0.0,2.3,111
2010-02-10 02:50:06,15.2,-9.8,25.0,0.0,2.3,112
2010-02-10 02:55:06,15.1,-12.6,27.7,0.0,2.3,111
2010-02-10 03:00:06,15.1,-22.4,37.5,0.0,2.3,111
2010-02-10 03:05:06,15.0,-13.6,28.6,0.0,2.4,112
2010-02-10 03:10:06,15.1,-6.8,21.9,0.0,2.4,112
2010-02-10 03:15:06,13.7,-5.0,18.6,0.0,2.3,111
2010-02-10 03:20:06,11.5,-4.8,16.3,0.0,2.3,112
2010-02-10 03:25:06,10.9,-4.6,15.5,0.0,2.3,112
2010-02-10 03:30:06,10.7,-4.7,15.4,0.0,2.3,111
2010-02-10 03:35:06,10.6,-4.7,15.4,0.0,2.3,112
2010-02-10 03:40:06,10.6,-4.4,15.1,0.0,2.3,111
2010-02-10 03:45:06,10.6,-4.6,15.2,0.0,2.3,112
2010-02-10 03:50:06,10.6,-4.7,15.3,0.0,2.3,112
2010-02-10 03:55:06,10.6,-4.7,15.3,0.0,2.3,111
2010-02-10 04:00:06,10.6,-4.6,15.1,0.0,2.3,112
2010-02-10 04:05:06,10.5,-4.7,15.3,0.0,2.3,112
2010-02-10 04:10:06,10.5,-5.0,15.5,0.0,2.3,111
2010-02-10 04:15:06,10.5,-5.3,15.8,0.0,2.3,112
2010-02-10 04:20:06,10.5,-5.0,15.5,0.0,2.3,111
2010-02-10 04:25:06,10.5,-4.8,15.3,0.0,2.3,112
2010-02-10 04:30:06,10.5,-4.8,15.3,0.0,2.3,112
2010-02-10 04:35:06,10.5,-5.0,15.5,0.0,2.4,111
2010-02-10 04:40:06,10.6,-4.9,15.5,0.0,2.3,112
2010-02-10 04:45:06,10.6,-5.1,15.7,0.0,2.3,111
2010-02-10 04:50:06,10.8,-6.1,16.9,0.0,2.3,112
2010-02-10 04:55:06,10.7,-6.1,16.8,0.0,2.3,112
2010-02-10 05:00:06,10.7,-7.9,18.6,0.0,2.3,111
2010-02-10 05:05:06,10.7,-6.3,17.0,0.0,2.3,112
2010-02-10 05:10:06,11.3,-8.8,20.0,0.0,2.3,111
2010-02-10 05:15:06,12.3,-5.5,17.8,0.0,2.3,111
2010-02-10 05:20:06,11.2,-4.8,15.9,0.0,2.3,112
2010-02-10 05:25:06,11.0,-4.9,15.9,0.0,2.3,112
2010-02-10 05:30:06,10.9,-4.9,15.8,0.0,2.3,112
2010-02-10 05:35:06,10.9,-4.9,15.8,0.0,2.3,111
2010-02-10 05:40:06,10.8,-4.7,15.5,0.0,2.3,112
2010-02-10 05:45:06,10.8,-4.5,15.3,0.0,2.3,112
2010-02-10 05:50:06,10.7,-4.6,15.3,0.0,2.3,112
2010-02-10 05:55:06,10.7,-4.7,15.4,0.0,2.3,112
2010-02-10 06:00:06,10.8,-5.6,16.4,0.0,2.3,112
2010-02-10 06:05:07,13.1,-10.4,23.5,0.0,2.3,112
2010-02-10 06:10:07,14.7,-12.4,27.1,0.0,2.3,111
2010-02-10 06:15:07,15.2,-9.7,24.9,0.0,2.3,112
2010-02-10 06:20:07,15.0,-19.6,34.6,0.0,2.4,111
2010-02-10 06:25:07,15.3,-18.8,34.2,0.1,2.4,112
2010-02-10 06:30:07,15.3,-23.3,38.6,0.2,2.4,112
2010-02-10 06:35:07,15.1,-27.1,42.3,0.4,2.3,111
2010-02-10 06:40:07,15.1,-24.4,39.5,0.9,2.3,112
2010-02-10 06:45:07,15.1,-26.4,41.5,1.7,2.3,111
2010-02-10 06:50:07,15.6,-23.6,39.2,3.5,2.3,111
2010-02-10 06:55:07,15.1,-26.1,41.1,6.7,2.3,112
2010-02-10 07:00:07,15.0,-30.1,45.1,11.7,2.3,111
2010-02-10 07:05:07,15.0,-26.6,41.6,17.6,2.3,112
2010-02-10 07:10:07,14.9,-22.6,37.5,22.8,2.3,111
2010-02-10 07:15:07,14.9,-13.0,27.9,26.2,2.3,112
2010-02-10 07:20:07,15.1,-14.0,29.1,28.1,2.3,111
2010-02-10 07:25:01,15.0,-25.1,40.1,30.2,2.3,45
2010-02-10 07:30:01,14.9,-17.4,32.3,30.6,2.3,111
2010-02-10 07:35:01,15.0,-13.4,28.3,31.0,2.3,112
2010-02-10 07:40:01,15.2,-17.6,32.8,31.5,2.3,111
2010-02-10 07:45:01,15.2,-19.0,34.3,31.6,2.3,112
2010-02-10 07:50:01,15.1,-21.7,36.8,31.9,2.3,112
2010-02-10 07:55:01,15.2,-16.1,31.3,32.0,2.4,112
2010-02-10 08:00:01,15.2,-20.3,35.5,32.1,2.4,111
2010-02-10 08:05:01,15.3,-13.2,28.5,32.1,2.3,112
2010-02-10 08:10:01,15.4,-9.3,24.7,32.1,2.3,111
2010-02-10 08:15:01,15.5,-14.6,30.1,32.2,2.3,112
2010-02-10 08:20:01,15.5,-11.5,27.0,32.3,2.3,111
2010-02-10 08:25:01,15.6,-13.7,29.3,32.3,2.3,111
2010-02-10 08:30:01,15.6,-23.4,39.0,32.3,2.3,112
2010-02-10 08:35:01,15.6,-10.7,26.3,32.5,2.2,111
2010-02-10 08:40:01,15.9,-5.4,21.3,32.4,2.3,111
2010-02-10 08:45:01,15.8,-6.1,22.0,32.5,2.2,112
2010-02-10 08:50:01,15.6,-22.9,38.5,32.4,2.2,111
2010-02-10 08:55:01,15.3,-30.9,46.2,32.4,2.3,112
2010-02-10 09:00:01,15.2,-29.6,44.8,32.4,2.3,111
2010-02-10 09:05:01,15.3,-21.9,37.2,32.4,2.3,112
2010-02-10 09:10:01,15.3,-28.2,43.5,32.4,2.3,111
2010-02-10 09:15:01,15.3,-23.4,38.7,32.4,2.3,112
2010-02-10 09:20:01,15.4,-27.3,42.7,32.4,2.3,111
2010-02-10 09:25:01,15.2,-29.1,44.2,32.4,2.4,112
2010-02-10 09:30:01,15.1,-24.7,39.8,32.5,2.3,111
2010-02-10 09:35:01,15.2,-20.7,35.9,32.5,2.3,112
2010-02-10 09:40:01,15.4,-20.2,35.6,32.5,2.2,111
2010-02-10 09:45:01,15.6,-13.3,28.9,32.4,2.2,112
2010-02-10 09:50:01,15.6,-16.9,32.6,32.5,2.2,112
2010-02-10 09:55:01,15.7,-9.8,25.5,32.5,2.1,112
2010-02-10 10:00:01,15.6,-12.8,28.4,32.4,2.2,111
2010-02-10 10:05:01,15.6,-21.0,36.6,32.5,2.2,112
2010-02-10 10:10:01,15.8,-12.5,28.3,32.5,2.2,112
2010-02-10 10:15:01,15.9,-9.6,25.4,32.4,2.2,112
2010-02-10 10:20:01,15.9,-10.4,26.3,32.5,2.2,111
2010-02-10 10:25:01,16.0,-12.2,28.2,32.5,2.1,111
2010-02-10 10:30:01,16.0,-14.9,31.0,32.5,2.2,112
2010-02-10 10:35:01,16.0,-19.6,35.6,32.5,2.2,111
2010-02-10 10:40:01,15.9,-9.4,25.3,32.4,2.2,112
2010-02-10 10:45:01,15.8,-9.8,25.6,32.4,2.3,111
2010-02-10 10:50:01,15.9,-11.8,27.8,32.5,2.3,112
2010-02-10 10:55:01,16.1,-15.1,31.2,32.5,2.3,112
2010-02-10 11:00:01,16.1,-20.0,36.1,32.5,2.2,112
2010-02-10 11:05:01,16.4,-13.0,29.4,32.5,2.2,111
2010-02-10 11:10:01,16.6,-9.9,26.4,32.5,2.3,112
2010-02-10 11:15:01,16.2,-7.8,24.1,32.4,2.2,112
2010-02-10 11:20:01,16.0,-8.2,24.3,32.4,2.2,111
2010-02-10 11:25:01,15.9,-10.6,26.5,32.5,2.1,112
2010-02-10 11:30:01,16.2,-8.6,24.8,32.6,2.2,111
2010-02-10 11:35:01,17.2,-8.5,25.7,32.6,2.4,112
2010-02-10 11:40:01,17.1,-11.5,28.7,32.5,2.4,112
2010-02-10 11:45:01,16.7,-11.1,27.8,32.5,2.3,111
2010-02-10 11:50:01,16.6,-15.0,31.6,32.5,2.3,112
2010-02-10 11:55:01,17.2,-12.2,29.4,32.5,2.3,111
2010-02-10 12:00:01,16.9,-13.4,30.3,32.5,2.4,112
2010-02-10 12:05:01,16.5,-14.1,30.6,32.5,2.3,111
2010-02-10 12:10:01,16.8,-22.3,39.1,32.6,2.3,112
2010-02-10 12:15:01,17.2,-11.3,28.5,32.5,2.4,111
2010-02-10 12:20:01,17.4,-10.8,28.2,32.6,2.4,112
2010-02-10 12:25:01,18.4,-12.1,30.5,32.6,2.3,112
2010-02-10 12:30:01,18.8,-15.2,34.0,32.6,2.1,111
2010-02-10 12:35:01,19.4,-12.5,31.9,32.6,2.0,111
2010-02-10 12:40:01,19.3,-16.9,36.1,32.6,2.2,111
2010-02-10 12:45:01,18.4,-23.0,41.5,32.6,2.0,112
2010-02-10 12:50:01,18.4,-24.8,43.3,32.6,2.2,112
2010-02-10 12:55:01,17.8,-24.7,42.5,32.6,2.3,111
2010-02-10 13:00:01,17.0,-30.6,47.5,32.6,2.3,111
2010-02-10 13:05:01,17.2,-29.1,46.2,32.6,2.3,112
2010-02-10 13:10:01,18.1,-30.1,48.1,32.6,2.3,111
2010-02-10 13:15:01,18.7,-28.9,47.7,32.6,2.1,112
2010-02-10 13:20:01,19.2,-29.6,48.8,32.6,2.0,111
2010-02-10 13:25:01,19.0,-29.9,48.8,32.6,2.0,111
2010-02-10 13:30:01,18.8,-28.2,47.0,32.6,1.8,112
2010-02-10 13:35:01,18.9,-29.8,48.7,32.6,1.9,111
2010-02-10 13:40:01,19.0,-27.9,46.9,32.6,1.9,112
2010-02-10 13:45:01,19.1,-26.9,46.0,32.6,2.0,111
2010-02-10 13:50:01,19.1,-19.6,38.7,32.6,2.0,112
2010-02-10 13:55:01,18.8,-22.4,41.2,32.6,1.9,112
2010-02-10 14:00:01,19.0,-19.8,38.8,32.6,1.9,111
2010-02-10 14:05:01,19.5,-17.6,37.2,32.6,2.3,112
2010-02-10 14:10:01,18.4,-24.9,43.3,32.5,2.1,111
2010-02-10 14:15:01,17.3,-27.9,45.2,32.6,2.3,112
2010-02-10 14:20:01,17.7,-26.2,43.9,32.6,2.3,111
2010-02-10 14:25:01,18.7,-26.9,45.7,32.6,2.0,112
2010-02-10 14:30:01,18.9,-24.2,43.1,32.6,1.9,111
2010-02-10 14:35:01,19.4,-10.8,30.2,32.6,2.3,111
2010-02-10 14:40:01,18.7,-8.9,27.6,32.2,2.2,112
2010-02-10 14:45:01,16.3,-20.8,37.1,32.3,2.3,112
2010-02-10 14:50:01,15.0,-33.1,48.1,32.4,2.3,111
2010-02-10 14:55:01,14.7,-31.1,45.9,32.6,2.3,111
2010-02-10 15:00:01,16.0,-30.9,46.9,32.6,2.3,111
2010-02-10 15:05:01,16.8,-31.3,48.1,32.6,2.3,112
2010-02-10 15:10:01,17.3,-30.9,48.2,32.6,2.4,111
2010-02-10 15:15:01,17.6,-31.3,49.0,32.6,2.3,112
2010-02-10 15:20:01,17.3,-31.4,48.7,32.6,2.3,111
2010-02-10 15:25:01,17.6,-30.8,48.3,32.6,2.3,112
2010-02-10 15:30:01,17.8,-30.5,48.4,32.6,2.3,111
2010-02-10 15:35:01,18.1,-31.1,49.2,32.6,2.3,111
2010-02-10 15:40:01,18.0,-31.7,49.7,32.6,2.3,112
2010-02-10 15:45:01,18.0,-31.8,49.8,32.6,2.3,111
2010-02-10 15:50:01,17.9,-31.5,49.4,32.6,2.3,112
2010-02-10 15:55:01,17.9,-32.4,50.3,32.6,2.3,111
2010-02-10 16:00:01,17.6,-32.7,50.3,32.6,2.3,111
2010-02-10 16:05:01,17.4,-31.8,49.2,32.6,2.3,112
2010-02-10 16:10:01,17.4,-32.0,49.4,32.6,2.3,111
2010-02-10 16:15:01,17.2,-31.7,48.9,32.6,2.3,112
2010-02-10 16:20:01,17.0,-32.3,49.3,32.6,2.3,111
2010-02-10 16:25:01,16.9,-29.4,46.4,32.6,2.5,111
2010-02-10 16:30:01,16.9,-29.9,46.8,32.5,2.5,111
2010-02-10 16:35:01,16.9,-29.8,46.6,32.5,2.4,112
2010-02-10 16:40:01,16.7,-34.2,50.9,32.5,2.3,111
2010-02-10 16:45:01,16.3,-34.6,50.8,32.5,2.3,112
2010-02-10 16:50:01,16.0,-33.9,49.9,32.4,2.2,111
2010-02-10 16:55:01,15.8,-33.3,49.1,32.4,2.3,111
2010-02-10 17:00:01,15.6,-33.4,49.1,32.3,2.3,111
2010-02-10 17:05:01,15.4,-33.9,49.2,32.0,2.3,112
2010-02-10 17:10:01,15.0,-34.2,49.2,31.7,2.3,111
2010-02-10 17:15:01,14.7,-33.7,48.5,31.4,2.3,111
2010-02-10 17:20:01,14.5,-33.5,48.1,30.9,2.3,112
2010-02-10 17:25:01,14.4,-33.7,48.1,30.1,2.3,112
2010-02-10 17:30:01,14.4,-34.4,48.8,28.7,2.3,111
2010-02-10 17:35:01,14.4,-35.0,49.3,26.2,2.3,111
2010-02-10 17:40:01,14.3,-35.2,49.5,22.1,2.3,111
2010-02-10 17:45:01,14.3,-35.0,49.3,16.7,2.3,112
2010-02-10 17:50:01,14.2,-35.2,49.4,11.2,2.3,112
2010-02-10 17:55:01,14.2,-34.8,49.0,6.7,2.3,111
2010-02-10 18:00:01,14.2,-34.7,48.8,3.6,2.3,111
2010-02-10 18:05:01,14.1,-33.6,47.7,1.9,2.3,112
2010-02-10 18:10:01,14.1,-34.5,48.6,1.0,2.3,111
2010-02-10 18:15:01,14.0,-34.8,48.8,0.5,2.3,112
2010-02-10 18:20:01,14.0,-34.4,48.4,0.2,2.3,111
2010-02-10 18:25:01,13.7,-34.0,47.7,0.1,2.3,111
2010-02-10 18:30:01,13.3,-34.2,47.5,0.0,2.3,111
2010-02-10 18:35:01,13.0,-34.4,47.3,0.0,2.3,111
2010-02-10 18:40:01,12.9,-34.2,47.1,0.0,2.3,112
2010-02-10 18:45:01,12.8,-34.2,47.0,0.0,2.3,111
2010-02-10 18:50:01,12.8,-34.4,47.2,0.0,2.3,112
2010-02-10 18:55:01,12.8,-34.7,47.5,0.0,2.3,111
2010-02-10 19:00:01,12.9,-34.6,47.6,0.0,2.3,111
2010-02-10 19:05:01,12.9,-34.8,47.7,0.0,2.3,112
2010-02-10 19:10:01,12.9,-34.8,47.7,0.0,2.3,111
2010-02-10 19:15:01,12.8,-34.7,47.5,0.0,2.3,111
2010-02-10 19:20:01,12.7,-34.5,47.1,0.0,2.3,112
2010-02-10 19:25:01,12.5,-34.3,46.8,0.0,2.3,111
2010-02-10 19:30:01,12.5,-34.2,46.7,0.0,2.3,112
2010-02-10 19:35:01,12.6,-34.3,46.9,0.0,2.3,111
2010-02-10 19:40:01,12.5,-34.3,46.9,0.0,2.3,111
2010-02-10 19:45:01,12.5,-34.3,46.9,0.0,2.3,112
2010-02-10 19:50:01,12.4,-34.5,46.9,0.0,2.3,111
2010-02-10 19:55:01,12.4,-34.5,46.8,0.0,2.3,111
2010-02-10 20:00:01,12.3,-34.1,46.4,0.0,2.3,111
2010-02-10 20:05:01,12.2,-34.4,46.5,0.0,2.3,112
2010-02-10 20:10:01,11.9,-34.6,46.5,0.0,2.3,112
2010-02-10 20:15:01,12.2,-34.2,46.4,0.0,2.3,111
2010-02-10 20:20:01,12.3,-34.1,46.4,0.0,2.3,111
2010-02-10 20:25:01,12.2,-33.7,45.9,0.0,2.3,111
2010-02-10 20:30:01,12.2,-33.9,46.1,0.0,2.3,112
2010-02-10 20:35:01,12.4,-34.3,46.8,0.0,2.3,111
2010-02-10 20:40:01,12.7,-34.7,47.4,0.0,2.3,111
2010-02-10 20:45:01,12.4,-35.0,47.5,0.0,2.3,111
2010-02-10 20:50:01,12.5,-35.2,47.7,0.0,2.3,111
2010-02-10 20:55:01,12.7,-35.3,48.0,0.0,2.3,112
2010-02-10 21:00:01,12.8,-35.3,48.0,0.0,2.3,111
2010-02-10 21:05:01,12.8,-35.4,48.2,0.0,2.3,112
2010-02-10 21:10:01,12.7,-35.2,47.9,0.0,2.3,111
2010-02-10 21:15:01,12.7,-35.4,48.0,0.0,2.3,112
2010-02-10 21:20:01,12.7,-35.3,48.0,0.0,2.3,111
2010-02-10 21:25:01,12.7,-35.1,47.8,0.0,2.3,111
2010-02-10 21:30:01,12.5,-34.9,47.4,0.0,2.3,111
2010-02-10 21:35:00,12.5,-35.1,47.6,0.0,2.3,10
2010-02-10 21:40:00,12.6,-34.8,47.5,0.0,2.3,111
2010-02-10 21:45:00,12.7,-34.8,47.5,0.0,2.3,111
2010-02-10 21:50:00,12.5,-34.9,47.4,0.0,2.3,111
2010-02-10 21:55:00,12.7,-35.1,47.7,0.0,2.3,112
2010-02-10 22:00:00,12.6,-35.1,47.7,0.0,2.3,111
2010-02-10 22:05:00,12.6,-34.9,47.5,0.0,2.4,112
2010-02-10 22:10:00,12.6,-34.9,47.5,0.0,2.4,111
2010-02-10 22:15:00,12.6,-34.9,47.5,0.0,2.4,112
2010-02-10 22:20:00,12.6,-34.6,47.2,0.0,2.4,111
2010-02-10 22:25:00,12.6,-34.8,47.3,0.0,2.4,112
2010-02-10 22:30:00,12.6,-34.8,47.3,0.0,2.4,111
2010-02-10 22:35:00,12.5,-35.1,47.7,0.0,2.4,112
2010-02-10 22:40:00,12.5,-35.4,47.9,0.0,2.3,111
2010-02-10 22:45:00,12.6,-35.5,48.0,0.0,2.4,111
2010-02-10 22:50:00,12.6,-35.5,48.1,0.0,2.4,112
2010-02-10 22:55:00,12.7,-33.9,46.6,0.0,2.4,111
2010-02-10 23:00:00,12.7,-33.9,46.6,0.0,2.4,112
2010-02-10 23:05:00,12.7,-33.8,46.4,0.0,2.3,111
2010-02-10 23:10:00,12.6,-34.6,47.2,0.0,2.4,111
2010-02-10 23:15:00,12.7,-23.4,36.1,0.0,2.4,112
2010-02-10 23:20:00,12.9,-24.4,37.3,0.0,2.4,111
2010-02-10 23:25:00,12.9,-31.6,44.5,0.0,2.4,112
2010-02-10 23:30:00,12.9,-34.8,47.7,0.0,2.4,111
2010-02-10 23:35:00,12.8,-35.3,48.1,0.0,2.3,111
2010-02-10 23:40:00,12.8,-35.3,48.1,0.0,2.4,112
2010-02-10 23:45:00,12.7,-35.8,48.5,0.0,2.4,111
2010-02-10 23:50:00,12.7,-32.0,44.7,0.0,2.4,112
2010-02-10 23:55:00,12.8,-31.7,44.5,0.0,2.4,111
